Regional Weather Roundup
Issued by NWS Jackson, KY

Home | Current Version | Previous Version | Graphics & Text | Print | Product List | Glossary On
Versions: 1 2 3 4 5 6 7 8 9 10 11 12 13 14 15 16 17 18 19 20 21 22 23 24 25 26 27 28 29 30 31 32 33 34 35 36 37 38 39 40 41 42 43 44 45 46 47 48 49 50
000
ASUS43 KJKL 181610
RWRJKL

EAST KENTUCKY HOURLY WEATHER ROUNDUP
NATIONAL WEATHER SERVICE JACKSON KY
1100 AM EST WED JAN 18 2017

NOTE: "FAIR" INDICATES FEW OR NO CLOUDS BELOW 12,000 FEET WITH
NO SIGNIFICANT WEATHER AND/OR OBSTRUCTIONS TO VISIBILITY.

* THESE REPORTS ARE NOT UNDER NWS QUALITY CONTROL AND MAY NOT
  REPORT WEATHER SUCH AS PRECIPITATION AND FOG.

KYZ079-080-083-085-087-088-110-112-115-119-120-181700
...EASTERN KENTUCKY...

CITY           SKY/WX    TMP DP  RH WIND       PRES   REMARKS
JACKSON        CLOUDY    43  37  79 W7        30.21R
LONDON         CLOUDY    44  35  70 W8        30.24R
SOMERSET*      CLOUDY    43  34  70 W5        30.26S
MONTICELLO*    CLOUDY    45  37  73 W6        30.27R
WILLIAMSBURG*  CLOUDY    43  37  81 CALM      30.24R
MIDDLESBORO*   CLOUDY    48  41  75 NW7       30.23S
HARLAN APT*    PTSUNNY   46  36  66 SW5       30.21S
PIKE CO APT*   CLOUDY    42  38  84 SW5       30.21R
BIG SANDY APT* CLOUDY    42  39  89 SW5       30.21R
MOREHEAD APT*  CLOUDY    43  34  70 NW9       30.24R
ASHLAND*       CLOUDY    45  39  81 W6        30.20R
$$

KYZ035-036-041-042-044-050-067-078-099-181700
...CENTRAL KENTUCKY...

CITY           SKY/WX    TMP DP  RH WIND       PRES   REMARKS
MT STERLING*   CLOUDY    41  37  87 NW8       30.24S
FLEMING/MASON* CLOUDY    40  34  80 NW6       30.24R
DANVILLE*      CLOUDY    43  36  75 N6        30.25R
LEXINGTON      CLOUDY    42  37  82 NW5       30.23R
FRANKFORT        N/A     42  39  89 MISG      30.23R
LOUISVILLE     CLOUDY    43  36  76 W8        30.24S
LEBANON*       CLOUDY    43  36  75 W3        30.25R
GLASGOW*       CLOUDY    45  38  75 CALM      30.25S
BOWLING GREEN  CLOUDY    45  38  76 N5        30.26R
$$

KYZ091>093-OHZ055-061-077-WVZ005-015-034-035-042-181700
...SOUTHERN OHIO/WEST VIRGINIA...

CITY           SKY/WX    TMP DP  RH WIND       PRES   REMARKS
COVINGTON      CLOUDY    38  35  89 W9        30.21R WCI  31
COLUMBUS       CLOUDY    41  34  76 W14       30.16R
DAYTON         CLOUDY    37  34  89 W9        30.19R WCI  30
WILMINGTON     CLOUDY    37  35  92 W10       30.19R WCI  30
HUNTINGTON     LGT RAIN  42  39  89 W8        30.20R
CHARLESTON     LGT RAIN  44  38  79 SW14      30.17R
PINEVILLE*     CLOUDY    45  36  70 MISG      30.22R
BECKLEY        CLOUDY    40  36  86 NW12      30.13R WCI  33
BLUEFIELD      CLOUDY    42  34  73 W14G22    30.12R
LOGAN CO APT*  CLOUDY    41  37  87 CALM      30.17S
$$

VAZ002-007-008-TNZ017-027-036-066-071-181700
...SOUTHWEST VIRGINIA/EAST TENNESSEE...

CITY           SKY/WX    TMP DP  RH WIND       PRES   REMARKS
WISE*          MOSUNNY   46  34  61 W13       30.18S
JONESVILLE*      N/A     52  39  62 W5        30.22R
ABINGDON*      PTSUNNY   52  42  69 NW10      30.16R
BRISTOL        MOSUNNY   53  41  63 W14       30.18R
MORRISTOWN*    SUNNY     54  43  66 MISG      30.19R
SEVIERVILLE*   MOSUNNY   52  45  76 NW6       30.19S
KNOXVILLE      PTSUNNY   55  44  66 N5        30.20R
LAFOLLETTE*    CLOUDY    52  39  62 VRB5      30.25R
OAK RIDGE      MOSUNNY   56  43  61 VRB3      30.21R
CROSSVILLE     CLOUDY    45  40  82 NE6       30.22R
NASHVILLE      CLOUDY    47  39  74 NE6       30.26R
$$

...KEY TO REMARKS...
VSB - VISIBILITY IN MILES
WCI - WIND CHILL INDEX
HX  - HEAT INDEX

$$



USA.gov is the U.S. government's official web portal to all federal, state and local government web resources and services.